Weather in Alchevsk

Ukraine / Luhansk Region     48˚28′08″N   38˚47′50″E
temp.,
°C
wind,
m/s
gust,
m/s
humid.,
%
clouds,
%
prec.,
mm/h
press.,
hPa
HPBL,
m
27 november, fri
fri2723:00ssw368626 0.0 1026187
02:00ssw489156 0.0 1026218
05:00ssw489283 0.0 1026199
08:00+1˚ssw5119289 0.0 1025296
11:00+3˚sw711830 0.0 1025610
14:00+4˚sw711799 0.0 1024719
17:00+3˚ssw51287100 0.0 1023337
20:00+3˚ssw51292100 0.0 1023314
28 november, sat
sat2823:00+4˚ssw41091100 0.0 1023352
02:00+4˚s51093100 0.0 1023262
05:00+4˚s51095100 0.0 1023295
08:00+4˚s61092100 0.0 1024380
11:00+5˚s5980100 0.0 1024406
14:00+6˚sse4781100 0.0 1024548
17:00+3˚se4988100 0.0 1024225
20:00+3˚se41085100 0.0 1025258
29 november, sun
sun2923:00+1˚se388458 0.0 1025181
02:00+1˚se489671 0.0 1025226
05:00+3˚se6109697 0.0 1024436
08:00+4˚se8129398 0.0 1025588
11:00+7˚sse81279100 0.0 1025733
14:00+8˚se81274100 0.0 1025770
17:00+6˚se6138196 0.0 1025552
20:00+6˚se7127997 0.0 1026736
30 november, mon
mon3023:00+5˚se61286100 0.0 1026600
02:00+6˚se61184100 0.0 1027659
05:00+5˚ese61183100 0.0 1026648
08:00+4˚ese61176100 0.0 1028629
11:00+5˚ese7106668 0.0 1027880
14:00+5˚ese7106882 0.0 10271066
17:00+4˚ese71170100 0.0 1027936
20:00+2˚ese6127191 0.0 1028643
1 december, tue
tue123:00+1˚ese6127222 0.0 1028558
02:00ese6137919 0.0 1028539
05:00−1˚e713828 0.0 1028566
08:00−1˚e8138141 0.0 1028646
11:00+1˚ese8137091 0.0 1028792
14:00+2˚ese8127094 0.0 1027914
17:00+1˚ese81275100 0.0 1027919
20:00ese81378100 0.0 1028718